This is the latest recevied weather packets stored in our database for station/object WS4FSC-7. If no packets are shown the sender has not sent any weather packets the latest 10 day(s).
| Time | Temp. | Humidity | Pressure | Rain* | Wind** | Luminosity | Snow |
|---|---|---|---|---|---|---|---|
| 1788553611 | 30.56° C | 71% | 1014 hPa | - | - | 83 W/m² | - |
| 1788553431 | 30.56° C | 70% | 1014 hPa | - | - | 84 W/m² | - |
| 1788553250 | 31.11° C | 69% | 1014 hPa | - | - | 82 W/m² | - |
| 1788552710 | 31.11° C | 75% | 1014 hPa | - | - | 52 W/m² | - |
| 1788552531 | 31.11° C | 76% | 1014 hPa | - | - | 47 W/m² | - |
| 1788552350 | 31.11° C | 75% | 1014 hPa | - | - | 59 W/m² | - |
| 1788551811 | 31.67° C | 75% | 1014 hPa | - | - | 109 W/m² | - |
| 1788551631 | 31.67° C | 74% | 1014 hPa | - | - | 113 W/m² | - |
| 1788551451 | 31.67° C | 73% | 1014 hPa | - | - | 113 W/m² | - |
| 1788551091 | 31.67° C | 73% | 1014 hPa | - | - | 124 W/m² | - |
| 1788550911 | 32.22° C | 73% | 1014 hPa | - | - | 134 W/m² | - |
| 1788548930 | 32.78° C | 68% | 1014 hPa | - | - | 904 W/m² | - |
| 1788548212 | 33.33° C | 66% | 1014 hPa | - | - | 954 W/m² | - |
| 1788547491 | 32.78° C | - | - | - | - | - | - |
| 1788546951 | 32.78° C | 69% | 1014 hPa | - | - | 366 W/m² | - |
| 1788546590 | 32.78° C | 69% | 1015 hPa | - | - | 485 W/m² | - |
| 1788546411 | 33.33° C | 68% | 1015 hPa | - | - | 437 W/m² | - |
| 1788546231 | 33.33° C | 67% | 1014 hPa | - | - | 386 W/m² | - |
| 1788546051 | 33.33° C | 66% | 1014 hPa | - | - | 791 W/m² | - |
| 1788545691 | 33.89° C | 64% | 1014 hPa | - | - | 987 W/m² | - |
| 1788545330 | 33.33° C | 67% | 1014 hPa | - | - | 996 W/m² | - |
| 1788545152 | 33.33° C | - | - | - | - | - | - |
| 1788544626 | 33.33° C | 69% | 1014 hPa | - | - | 1112 W/m² | - |
| 1788544251 | 33.33° C | 69% | 1014 hPa | - | - | 713 W/m² | - |
| 1788544072 | 33.33° C | 67% | 1014 hPa | - | - | 823 W/m² | - |
* Rain since midnight (hover to see other rain measurements)
** Current wind speed in m/s (hover to see current wind gust speed)